Location: Boitzum
(52.1496°N, 9.6943°E)
Time: 00:00:52
(UTC+00:00)

SPOT 1/Viking Rocket - Pass Details

Date: 13 January 2026
Orbit: 772 x 789 km, 98.2° (Epoch: 18 February)

Event Time Altitude Azimuth Distance (km) Brightness Sun altitude
Rises 06:42:43 0° 14° (NNE) 3,265 6.6 -6.3°
Reaches altitude 10° 06:45:02 10° 14° (NNE) 2,332 5.9 -6.0°
Maximum altitude 06:50:12 86° 286° (WNW) 782 3.6 -5.3°
Drops below altitude 10° 06:55:18 10° 198° (SSW) 2,315 6.2 -4.6°
Sets 06:57:36 0° 198° (SSW) 3,238 6.9 -4.3°
